AD4UU Weather Reports


time (UTC)temp
C
wind
direction
speed
KPH
gust
KPH
rain 1hr
cm
rain 24hr
cm
rain mn
cm
humidity
%
barometer
mb
20260510194030 31 251 14.5 29.0 0.00 0.00 0.00 67 1016.5
20260510193534 31 271 12.9 27.4 0.00 0.00 0.00 65 1016.6
20260510193049 31 243 16.1 27.4 0.00 0.00 0.00 65 1016.6
20260510192531 31 242 14.5 24.1 0.00 0.00 0.00 65 1016.7
20260510192030 31 231 11.3 24.1 0.00 0.00 0.00 62 1016.6
20260510191549 31 244 12.9 24.1 0.00 0.00 0.00 63 1016.7
20260510191030 31 242 12.9 24.1 0.00 0.00 0.00 65 1016.7
20260510190530 31 244 11.3 27.4 0.00 0.00 0.00 63 1016.8
20260510190048 31 223 11.3 27.4 0.00 0.00 0.00 61 1016.7
20260510185530 31 242 11.3 25.7 0.00 0.00 0.00 62 1016.8
20260510185029 31 230 12.9 35.4 0.00 0.00 0.00 62 1016.9
20260510184556 30 239 14.5 35.4 0.00 0.00 0.00 60 1016.9
20260510184031 31 255 19.3 35.4 0.00 0.00 0.00 60 1017.0
20260510183530 31 235 12.9 27.4 0.00 0.00 0.00 63 1016.8
20260510183047 31 269 16.1 27.4 0.00 0.00 0.00 65 1017.0
20260510182530 31 267 16.1 30.6 0.00 0.00 0.00 62 1017.0
20260510182030 31 254 20.9 30.6 0.00 0.00 0.00 62 1017.0
20260510181548 31 270 16.1 32.2 0.00 0.00 0.00 66 1017.1
20260510181028 31 314 12.9 32.2 0.00 0.00 0.00 66 1017.1
20260510180529 31 266 17.7 35.4 0.00 0.00 0.00 62 1017.1
20260510180051 32 251 22.5 35.4 0.00 0.00 0.00 59 1017.2
20260510175530 32 246 19.3 30.6 0.00 0.00 0.00 61 1017.2
20260510175030 31 266 19.3 30.6 0.00 0.00 0.00 61 1017.2
20260510174551 32 234 14.5 30.6 0.00 0.00 0.00 62 1017.4
20260510174030 32 244 19.3 30.6 0.00 0.00 0.00 62 1017.3
20260510173531 32 250 14.5 27.4 0.00 0.00 0.00 59 1017.3
20260510173047 32 246 14.5 24.1 0.00 0.00 0.00 60 1017.2
20260510172530 32 235 12.9 27.4 0.00 0.00 0.00 63 1017.1
20260510172032 31 255 14.5 27.4 0.00 0.00 0.00 63 1017.2
20260510171546 31 234 12.9 25.7 0.00 0.00 0.00 65 1017.4
20260510171030 31 269 16.1 32.2 0.00 0.00 0.00 69 1017.5
20260510170533 31 290 19.3 32.2 0.00 0.00 0.00 63 1017.6
20260510170047 31 252 16.1 29.0 0.00 0.00 0.00 62 1017.5
20260510165530 31 224 16.1 29.0 0.00 0.00 0.00 64 1017.5
20260510165030 31 226 12.9 27.4 0.00 0.00 0.00 65 1017.5
20260510164541 31 259 14.5 25.7 0.00 0.00 0.00 68 1017.6
20260510164029 30 265 14.5 25.7 0.00 0.00 0.00 68 1017.8
20260510163531 30 262 11.3 25.7 0.00 0.00 0.00 67 1017.7
20260510163051 31 248 8.0 24.1 0.00 0.00 0.00 67 1017.8
20260510162530 31 254 9.7 24.1 0.00 0.00 0.00 67 1017.6
20260510162031 31 260 12.9 22.5 0.00 0.00 0.00 65 1017.8
20260510161548 31 261 9.7 22.5 0.00 0.00 0.00 68 1017.7
20260510161029 30 263 11.3 24.1 0.00 0.00 0.00 69 1017.7
20260510160530 30 255 14.5 24.1 0.00 0.00 0.00 71 1017.9
20260510160050 30 259 12.9 24.1 0.00 0.00 0.00 70 1017.8
20260510155534 30 303 11.3 22.5 0.00 0.00 0.00 72 1017.8
20260510155029 28 243 8.0 16.1 0.00 0.00 0.00 75 1017.9
20260510154542 28 238 8.0 16.1 0.00 0.00 0.00 76 1017.9
20260510154030 28 274 4.8 17.7 0.00 0.00 0.00 76 1018.0
20260510153529 28 261 11.3 17.7 0.00 0.00 0.00 75 1018.0
20260510153044 29 242 8.0 17.7 0.00 0.00 0.00 73 1017.8
20260510152533 29 296 9.7 17.7 0.00 0.00 0.00 73 1017.9
20260510152029 29 251 8.0 17.7 0.00 0.00 0.00 73 1017.9
20260510151542 29 309 6.4 19.3 0.00 0.00 0.00 72 1017.7
20260510151031 30 246 9.7 19.3 0.00 0.00 0.00 72 1017.8
20260510150531 30 240 6.4 19.3 0.00 0.00 0.00 72 1017.9
20260510150054 30 185 6.4 16.1 0.00 0.00 0.00 71 1017.7
20260510145531 29 238 6.4 16.1 0.00 0.00 0.00 73 1017.8
20260510145031 29 234 6.4 16.1 0.00 0.00 0.00 74 1017.8
20260510144547 28 255 8.0 16.1 0.00 0.00 0.00 74 1017.8
20260510144032 28 227 6.4 20.9 0.00 0.00 0.00 75 1017.9
20260510143531 28 263 8.0 20.9 0.00 0.00 0.00 75 1017.8
20260510143046 28 271 11.3 16.1 0.00 0.00 0.00 76 1017.8
20260510142531 28 209 6.4 16.1 0.00 0.00 0.00 77 1017.7
20260510142030 28 223 4.8 14.5 0.00 0.00 0.00 77 1017.8
20260510141555 28 219 4.8 14.5 0.00 0.00 0.00 78 1017.7
20260510141031 28 217 3.2 12.9 0.00 0.00 0.00 78 1017.6
20260510140531 28 217 6.4 12.9 0.00 0.00 0.00 78 1017.7
20260510140055 28 251 4.8 14.5 0.00 0.00 0.00 78 1017.6
20260510135531 28 203 4.8 19.3 0.00 0.00 0.00 78 1017.7
20260510135031 28 215 6.4 19.3 0.00 0.00 0.00 78 1017.7
20260510134550 28 210 4.8 14.5 0.00 0.00 0.00 78 1017.7
20260510134031 27 120 4.8 16.1 0.00 0.00 0.00 80 1017.6
20260510133529 27 200 8.0 16.1 0.00 0.00 0.00 79 1017.6
20260510133047 27 190 4.8 9.7 0.00 0.00 0.00 80 1017.6
20260510132531 27 203 4.8 11.3 0.00 0.00 0.00 80 1017.5
20260510132033 27 186 3.2 11.3 0.00 0.00 0.00 81 1017.5
20260510131549 27 144 6.4 11.3 0.00 0.00 0.00 80 1017.4
20260510131030 26 215 3.2 9.7 0.00 0.00 0.00 82 1017.4
20260510130531 26 217 6.4 11.3 0.00 0.00 0.00 82 1017.3
20260510130049 26 196 3.2 11.3 0.00 0.00 0.00 84 1017.4
20260510125530 25 216 4.8 11.3 0.00 0.00 0.00 84 1017.4
20260510125031 25 173 3.2 9.7 0.00 0.00 0.00 85 1017.5
20260510124554 25 202 3.2 8.0 0.00 0.00 0.00 87 1017.5
20260510124032 25 213 1.6 11.3 0.00 0.00 0.00 88 1017.4
20260510123531 24 219 3.2 11.3 0.00 0.00 0.00 89 1017.4
20260510123050 24 220 1.6 8.0 0.00 0.00 0.00 90 1017.2
20260510122529 23 232 1.6 8.0 0.00 0.00 0.00 91 1017.1
20260510122030 23 173 0.0 6.4 0.00 0.00 0.00 92 1017.0
20260510121549 23 261 1.6 8.0 0.00 0.00 0.00 93 1017.0
20260510121031 22 184 1.6 8.0 0.00 0.00 0.00 94 1017.0
20260510120532 22 160 1.6 9.7 0.00 0.00 0.00 94 1016.8
20260510120051 22 186 3.2 11.3 0.00 0.00 0.00 95 1016.6
20260510115530 22 208 4.8 11.3 0.00 0.00 0.00 96 1016.6
20260510115030 22 190 3.2 8.0 0.00 0.00 0.00 96 1016.5
20260510114545 22 190 1.6 8.0 0.00 0.00 0.00 97 1016.6
20260510114031 21 217 3.2 8.0 0.00 0.00 0.00 97 1016.4
20260510113532 21 202 1.6 8.0 0.00 0.00 0.00 98 1016.4
20260510113047 21 186 1.6 8.0 0.00 0.00 0.00 98 1016.3
20260510112529 21 221 0.0 4.8 0.00 0.00 0.00 98 1016.2
20260510112031 21 0 0.0 0.0 0.00 0.00 0.00 98 1016.1
20260510111540 20 0 0.0 0.0 0.00 0.00 0.00 97 1016.1
20260510111030 20 0 0.0 0.0 0.00 0.00 0.00 97 1016.1
20260510110530 20 0 0.0 0.0 0.00 0.00 0.00 96 1016.1
20260510110050 20 0 0.0 0.0 0.00 0.00 0.00 96 1015.9
20260510105531 20 0 0.0 0.0 0.00 0.00 0.00 96 1015.9
20260510105030 20 0 0.0 0.0 0.00 0.00 0.00 96 1015.8
20260510104548 20 0 0.0 0.0 0.00 0.00 0.00 96 1015.6
20260510104029 20 0 0.0 0.0 0.00 0.00 0.00 96 1015.6
20260510103531 20 0 0.0 0.0 0.00 0.00 0.00 96 1015.7
20260510103057 20 0 0.0 0.0 0.00 0.00 0.00 96 1015.5
20260510102530 20 0 0.0 0.0 0.00 0.00 0.00 95 1015.5
20260510102030 20 0 0.0 1.6 0.00 0.00 0.00 95 1015.3
20260510101550 20 0 0.0 1.6 0.00 0.00 0.00 95 1015.4
20260510101029 20 0 0.0 1.6 0.00 0.00 0.00 94 1015.4
20260510100530 21 79 0.0 1.6 0.00 0.00 0.00 94 1015.2
20260510100044 21 0 0.0 1.6 0.00 0.00 0.00 95 1015.1
20260510095531 21 0 0.0 1.6 0.00 0.00 0.00 95 1015.0
20260510095029 21 0 0.0 0.0 0.00 0.00 0.00 95 1015.0
20260510094549 21 0 0.0 0.0 0.00 0.00 0.00 95 1015.0
20260510094031 21 0 0.0 0.0 0.00 0.00 0.00 94 1015.0
20260510093530 21 0 0.0 0.0 0.00 0.00 0.00 94 1015.0
20260510093048 21 0 0.0 0.0 0.00 0.00 0.00 94 1014.8
20260510092531 21 0 0.0 0.0 0.00 0.00 0.00 94 1014.8
20260510092029 21 0 0.0 0.0 0.00 0.00 0.00 94 1014.7
20260510091551 21 0 0.0 0.0 0.00 0.00 0.00 94 1014.9
20260510091033 21 0 0.0 0.0 0.00 0.00 0.00 94 1014.6
20260510090530 21 0 0.0 0.0 0.00 0.00 0.00 93 1014.6
20260510090059 21 0 0.0 0.0 0.00 0.00 0.00 93 1014.6
20260510085530 21 0 0.0 0.0 0.00 0.00 0.00 92 1014.5
20260510085030 22 0 0.0 1.6 0.00 0.00 0.00 92 1014.4
20260510084545 22 0 0.0 1.6 0.00 0.00 0.00 92 1014.2
20260510084033 22 0 0.0 0.0 0.00 0.00 0.00 92 1014.3
20260510083530 22 0 0.0 6.4 0.00 0.00 0.00 92 1014.1
20260510083045 22 0 0.0 6.4 0.00 0.00 0.00 92 1014.2
20260510082529 22 140 0.0 9.7 0.00 0.00 0.00 92 1014.1
20260510082033 22 168 0.0 9.7 0.00 0.00 0.00 92 1014.1
20260510081554 22 0 3.2 9.7 0.00 0.00 0.00 91 1014.1
20260510081031 22 153 3.2 9.7 0.00 0.00 0.00 91 1014.1
20260510080532 22 182 1.6 9.7 0.00 0.00 0.00 91 1014.1
20260510080050 22 168 1.6 9.7 0.00 0.00 0.00 91 1014.2
20260510075530 22 0 1.6 8.0 0.00 0.00 0.00 91 1014.3
20260510075030 22 0 1.6 12.9 0.00 0.00 0.00 91 1014.3
20260510074547 22 155 1.6 14.5 0.00 0.00 0.00 91 1014.1
20260510074031 22 169 3.2 14.5 0.00 0.00 0.00 91 1014.2
20260510073533 22 145 3.2 11.3 0.00 0.00 0.00 91 1014.2
20260510073049 22 163 3.2 12.9 0.00 0.00 0.00 91 1014.1
20260510072531 22 172 4.8 16.1 0.00 0.00 0.00 92 1014.1
20260510072033 22 140 8.0 16.1 0.00 0.00 0.00 92 1014.0
20260510071546 22 177 6.4 12.9 0.00 0.00 0.00 92 1014.1
20260510071029 22 157 1.6 14.5 0.00 0.00 0.00 92 1014.1
20260510070529 22 117 3.2 14.5 0.00 0.00 0.00 91 1014.2
20260510070048 22 166 3.2 11.3 0.00 0.00 0.00 91 1014.2
20260510065529 22 117 4.8 14.5 0.00 0.00 0.00 91 1014.4
20260510065030 22 140 4.8 14.5 0.00 0.00 0.00 91 1014.3
20260510064541 22 146 6.4 16.1 0.00 0.00 0.00 91 1014.4
20260510064031 22 146 6.4 16.1 0.00 0.00 0.00 91 1014.4
20260510063529 22 182 6.4 12.9 0.00 0.00 0.00 91 1014.4
20260510063048 22 167 3.2 12.9 0.00 0.00 0.00 91 1014.5
20260510062530 22 165 4.8 12.9 0.00 0.00 0.00 90 1014.7
20260510062032 22 139 4.8 12.9 0.00 0.00 0.00 90 1014.7
20260510061557 22 208 3.2 6.4 0.00 0.00 0.00 90 1014.8
20260510061032 22 151 1.6 6.4 0.00 0.00 0.00 89 1014.9
20260510060531 22 145 1.6 6.4 0.00 0.00 0.00 89 1014.9
20260510060050 22 0 1.6 4.8 0.00 0.00 0.00 89 1015.1
20260510055531 22 117 0.0 4.8 0.00 0.00 0.00 89 1015.2
20260510055031 22 94 0.0 3.2 0.00 0.00 0.00 89 1015.3
20260510054557 22 0 0.0 3.2 0.00 0.00 0.00 89 1015.3
20260510054030 22 0 0.0 3.2 0.00 0.00 0.00 88 1015.4
20260510053533 22 130 0.0 4.8 0.00 0.00 0.00 88 1015.5
20260510053045 22 141 1.6 9.7 0.00 0.00 0.00 88 1015.5
20260510052531 22 113 3.2 9.7 0.00 0.00 0.00 89 1015.6
20260510052031 22 119 0.0 1.6 0.00 0.00 0.00 89 1015.7
20260510051548 22 140 0.0 1.6 0.00 0.00 0.00 89 1015.7
20260510051031 22 135 0.0 1.6 0.00 0.00 0.00 89 1015.7
20260510050532 22 0 0.0 1.6 0.00 0.00 0.00 88 1015.8
20260510050054 22 0 0.0 1.6 0.00 0.00 0.00 88 1015.9
20260510045531 22 0 0.0 1.6 0.00 0.00 0.00 88 1015.9
20260510045031 22 95 0.0 1.6 0.00 0.00 0.00 88 1016.0
20260510044548 22 0 0.0 0.0 0.00 0.00 0.00 88 1016.1
20260510044031 22 0 0.0 0.0 0.00 0.00 0.00 88 1016.0
20260510043531 22 0 0.0 0.0 0.00 0.00 0.00 88 1016.1
20260510043050 22 0 0.0 0.0 0.00 0.00 0.00 88 1016.3
20260510042529 22 0 0.0 0.0 0.00 0.00 0.00 88 1016.2
20260510042029 22 0 0.0 0.0 0.00 0.00 0.00 87 1016.3
20260510041601 22 0 0.0 0.0 0.00 0.00 0.00 87 1016.3
20260510041031 22 0 0.0 0.0 0.00 0.00 0.00 86 1016.3
20260510040529 22 0 0.0 0.0 0.00 0.00 0.00 86 1016.3
20260510040045 22 0 0.0 0.0 0.00 0.00 0.00 86 1016.3
20260510035530 22 0 0.0 1.6 0.00 0.00 0.00 86 1016.4
20260510035031 22 0 0.0 1.6 0.00 0.00 0.00 86 1016.4
20260510034545 23 0 0.0 1.6 0.00 0.00 0.00 86 1016.3
20260510034030 23 119 0.0 1.6 0.00 0.00 0.00 86 1016.4
20260510033531 23 0 0.0 1.6 0.00 0.00 0.00 86 1016.3
20260510033052 23 132 0.0 1.6 0.00 0.00 0.00 86 1016.4
20260510032530 23 0 0.0 1.6 0.00 0.00 0.00 85 1016.5
20260510032030 23 0 0.0 1.6 0.00 0.00 0.00 85 1016.5
20260510031555 23 0 0.0 3.2 0.00 0.00 0.00 85 1016.3
20260510031030 23 110 0.0 3.2 0.00 0.00 0.00 85 1016.3
20260510030531 23 0 0.0 3.2 0.00 0.00 0.00 85 1016.2
20260510030049 23 0 0.0 1.6 0.00 0.00 0.00 85 1016.3
20260510025530 23 0 0.0 3.2 0.00 0.00 0.00 85 1016.2
20260510025030 23 0 0.0 4.8 0.00 0.00 0.00 85 1016.0
20260510024604 23 136 0.0 4.8 0.00 0.00 0.00 85 1016.2
20260510024032 23 105 1.6 4.8 0.00 0.00 0.00 85 1016.1
20260510023530 23 116 0.0 3.2 0.00 0.00 0.00 85 1015.9
20260510023055 23 121 0.0 4.8 0.00 0.00 0.00 85 1015.9
20260510022533 23 101 1.6 4.8 0.00 0.00 0.00 85 1015.9
20260510022031 23 108 0.0 3.2 0.00 0.00 0.00 85 1015.8
20260510021548 23 101 0.0 3.2 0.00 0.00 0.00 85 1015.8
20260510021030 23 115 0.0 3.2 0.00 0.00 0.00 85 1015.8
20260510020531 23 116 0.0 3.2 0.00 0.00 0.00 85 1015.7
20260510020047 23 101 0.0 4.8 0.00 0.00 0.00 85 1015.7
20260510015534 23 113 1.6 4.8 0.00 0.00 0.00 84 1015.5
20260510015030 23 98 0.0 3.2 0.00 0.00 0.00 84 1015.4
20260510014608 23 79 1.6 3.2 0.00 0.00 0.00 84 1015.4
20260510014029 23 76 0.0 1.6 0.00 0.00 0.00 85 1015.4
20260510013533 23 0 0.0 3.2 0.00 0.00 0.00 85 1015.4
20260510013059 23 0 0.0 4.8 0.00 0.00 0.00 84 1015.4
20260510012530 23 85 1.6 6.4 0.00 0.00 0.00 84 1015.3
20260510012030 23 0 1.6 6.4 0.00 0.00 0.00 84 1015.3
20260510011554 23 0 0.0 1.6 0.00 0.00 0.00 85 1015.2
20260510011029 22 0 0.0 1.6 0.00 0.00 0.00 85 1015.3
20260510010530 22 88 0.0 1.6 0.00 0.00 0.00 85 1015.2
20260510010051 22 0 0.0 1.6 0.00 0.00 0.00 84 1015.3
20260510005531 22 0 0.0 1.6 0.00 0.00 0.00 84 1015.0
20260510005031 22 20 0.0 1.6 0.00 0.00 0.00 84 1014.9
20260510004555 22 0 0.0 1.6 0.00 0.00 0.00 85 1014.9
20260510004030 22 0 0.0 3.2 0.00 0.00 0.00 84 1015.0
20260510003531 22 0 0.0 3.2 0.00 0.00 0.00 84 1014.7
20260510003051 23 9 0.0 3.2 0.00 0.00 0.00 84 1014.7
20260510002532 23 327 0.0 4.8 0.00 0.00 0.00 84 1014.7
20260510002030 23 338 1.6 11.3 0.00 0.00 0.00 83 1014.7
20260510001546 23 321 1.6 11.3 0.00 0.00 0.00 83 1014.7
20260510001031 23 338 3.2 16.1 0.00 0.00 0.00 82 1014.6
20260510000530 23 11 6.4 16.1 0.00 0.00 0.00 82 1014.7
20260510000048 23 346 6.4 16.1 0.00 0.00 0.00 82 1014.6
20260509235531 23 19 3.2 16.1 0.00 0.00 0.00 82 1014.7
20260509235030 23 26 4.8 12.9 0.00 0.00 0.00 82 1014.7
20260509234546 23 31 4.8 12.9 0.00 0.00 0.00 82 1014.6
20260509234029 23 338 4.8 17.7 0.00 0.00 0.00 82 1014.6
20260509233529 23 346 6.4 17.7 0.00 0.00 0.00 82 1014.6
20260509233043 23 342 6.4 17.7 0.00 0.00 0.00 81 1014.5
20260509232533 23 23 6.4 12.9 0.00 0.00 0.00 82 1014.4
20260509232031 23 52 3.2 16.1 0.00 0.00 0.00 81 1014.5
20260509231558 23 311 3.2 20.9 0.00 0.00 0.00 81 1014.5
20260509231027 23 335 9.7 20.9 0.00 0.00 0.00 81 1014.7
20260509230531 23 298 8.0 19.3 0.00 0.00 0.00 81 1014.7
20260509230048 23 329 9.7 22.5 0.00 0.00 0.00 81 1014.6
20260509225531 23 326 12.9 22.5 0.00 0.00 0.00 81 1014.6
20260509225030 24 326 6.4 20.9 0.00 0.00 0.00 82 1014.7
20260509224546 24 317 6.4 25.7 0.00 0.00 0.00 82 1014.7
20260509224030 25 311 14.5 25.7 0.00 0.00 0.00 81 1014.7
20260509223531 25 336 8.0 24.1 0.00 0.00 0.00 80 1014.5
20260509223051 26 342 9.7 25.7 0.00 0.00 0.00 78 1014.4
20260509222535 26 294 8.0 25.7 0.00 0.00 0.00 77 1014.5
20260509222035 27 297 14.5 22.5 0.00 0.00 0.00 75 1014.3
20260509221549 27 290 8.0 22.5 0.00 0.00 0.00 74 1014.2
20260509221030 27 291 6.4 16.1 0.00 0.00 0.00 73 1014.2
20260509220531 27 269 8.0 19.3 0.00 0.00 0.00 73 1014.1
20260509220045 27 291 8.0 19.3 0.00 0.00 0.00 72 1014.0
20260509215533 27 309 11.3 19.3 0.00 0.00 0.00 72 1013.8
20260509215031 27 297 8.0 17.7 0.00 0.00 0.00 72 1013.8
20260509214550 28 311 8.0 17.7 0.00 0.00 0.00 72 1013.8
20260509214031 28 294 8.0 17.7 0.00 0.00 0.00 72 1013.7
20260509213530 28 292 4.8 16.1 0.00 0.00 0.00 72 1013.7
20260509213052 28 296 6.4 16.1 0.00 0.00 0.00 72 1013.7
20260509212533 28 291 6.4 16.1 0.00 0.00 0.00 71 1013.6
20260509212031 28 294 6.4 12.9 0.00 0.00 0.00 72 1013.5
20260509211555 28 292 6.4 12.9 0.00 0.00 0.00 71 1013.5
20260509211031 28 294 6.4 17.7 0.00 0.00 0.00 71 1013.4
20260509210533 28 271 8.0 17.7 0.00 0.00 0.00 70 1013.4
20260509210054 28 301 8.0 19.3 0.00 0.00 0.00 70 1013.4
20260509205531 28 263 11.3 20.9 0.00 0.00 0.00 69 1013.5
20260509205033 28 300 8.0 20.9 0.00 0.00 0.00 69 1013.5
20260509204547 28 263 6.4 19.3 0.00 0.00 0.00 68 1013.5
20260509204030 28 256 9.7 17.7 0.00 0.00 0.00 68 1013.6
20260509203530 29 297 9.7 17.7 0.00 0.00 0.00 67 1013.5
20260509203044 29 258 9.7 17.7 0.00 0.00 0.00 68 1013.5
20260509202534 29 279 8.0 17.7 0.00 0.00 0.00 69 1013.4
20260509202031 29 294 8.0 17.7 0.00 0.00 0.00 69 1013.5
20260509201542 29 290 6.4 17.7 0.00 0.00 0.00 70 1013.5
20260509201030 28 302 9.7 19.3 0.00 0.00 0.00 71 1013.5
20260509200529 28 298 8.0 19.3 0.00 0.00 0.00 71 1013.5
20260509200053 29 313 11.3 22.5 0.00 0.00 0.00 70 1013.5
20260509195534 29 284 8.0 22.5 0.00 0.00 0.00 69 1013.5
20260509195031 28 264 14.5 22.5 0.00 0.00 0.00 68 1013.5
20260509194546 29 267 9.7 24.1 0.00 0.00 0.00 68 1013.6